FDX40 KMEM-SBKP

Flight info

Callsign FDX40
Flight time N/A
Altitude 29000
Route GMBUD7 JADET DCT MGMRY DCT DEEDA Q116 PATOY/N0500F310 Q116 JAYMC DCT DHP A509 URSUS UP406 MEVUB UM782 USVUS/N0498F330 UM782 LONAX UL201 BUPNA/N0487F350 UL201 ARPAR UZ82 TITVO UM411 UTLOT
Aircraft MD11/H-SDE1E2E3FGHIJ2J3J4J5M1RWXY/LB1D1

Departure

Time N/A
Airport Memphis International Airport (KMEM)

Arrival

Time 2026-04-30 18:41
Airport Viracopos International Airport (SBKP)
Time Latitude Longitude Altitude Speed Heading
2026-04-30 14:52 -0.93278 -68.25210 32944 ft 485 kts 137°
2026-04-30 14:52 -1.00794 -68.18430 32947 ft 485 kts 137°
2026-04-30 14:53 -1.08282 -68.11674 32948 ft 485 kts 137°
2026-04-30 14:54 -1.18291 -68.02643 32949 ft 484 kts 137°
2026-04-30 14:55 -1.25796 -67.95871 32947 ft 484 kts 137°
2026-04-30 14:56 -1.35773 -67.86868 32950 ft 484 kts 137°
2026-04-30 14:57 -1.43242 -67.80126 32948 ft 483 kts 137°
2026-04-30 14:58 -1.53233 -67.71108 32951 ft 483 kts 137°
2026-04-30 14:58 -1.60713 -67.64355 32951 ft 483 kts 137°
2026-04-30 15:00 -1.73173 -67.53106 32951 ft 484 kts 137°
2026-04-30 15:01 -1.83162 -67.44085 32953 ft 484 kts 137°
2026-04-30 15:01 -1.90655 -67.37318 32948 ft 484 kts 137°
2026-04-30 15:02 -1.95619 -67.32835 32950 ft 484 kts 137°
2026-04-30 15:03 -2.08105 -67.21554 32945 ft 484 kts 137°
2026-04-30 15:04 -2.20612 -67.10254 32948 ft 485 kts 137°
2026-04-30 15:06 -2.33069 -66.98883 32941 ft 485 kts 135°
2026-04-30 15:07 -2.42605 -66.89355 32939 ft 484 kts 134°
2026-04-30 15:08 -2.52145 -66.79816 32942 ft 484 kts 134°
2026-04-30 15:09 -2.64051 -66.67935 32939 ft 484 kts 134°
2026-04-30 15:10 -2.73537 -66.58406 32944 ft 484 kts 134°
2026-04-30 15:11 -2.86990 -66.44872 32942 ft 484 kts 134°
2026-04-30 15:13 -2.99619 -66.32165 32941 ft 484 kts 133°
2026-04-30 15:14 -3.15422 -66.16257 32941 ft 484 kts 133°
2026-04-30 15:17 -3.36742 -65.94782 32942 ft 483 kts 133°
2026-04-30 15:19 -3.56257 -65.76239 32939 ft 485 kts 138°
2026-04-30 17:39 -18.22488 -53.07092 32958 ft 498 kts 137°
2026-04-30 17:42 -18.47900 -52.82283 32966 ft 499 kts 137°
2026-04-30 17:43 -18.60621 -52.69805 32966 ft 499 kts 137°
2026-04-30 17:44 -18.75866 -52.54836 32962 ft 500 kts 137°
2026-04-30 17:47 -18.98706 -52.32262 32953 ft 501 kts 137°
2026-04-30 17:48 -19.16433 -52.14565 32952 ft 501 kts 137°
2026-04-30 17:50 -19.36677 -51.94297 32950 ft 502 kts 137°
2026-04-30 17:52 -19.51895 -51.79009 32953 ft 502 kts 137°
2026-04-30 17:54 -19.75485 -51.57036 32950 ft 502 kts 141°
2026-04-30 17:56 -19.96865 -51.37912 32952 ft 503 kts 141°
2026-04-30 17:58 -20.12891 -51.23527 32950 ft 503 kts 141°
2026-04-30 18:00 -20.34286 -51.04280 32952 ft 504 kts 141°
2026-04-30 18:01 -20.47696 -50.92242 32944 ft 505 kts 141°
2026-04-30 18:02 -20.63804 -50.77741 32955 ft 505 kts 142°
2026-04-30 18:04 -20.79931 -50.63170 32953 ft 506 kts 142°
2026-04-30 18:06 -21.01330 -50.43679 33011 ft 506 kts 142°
2026-04-30 18:08 -21.20096 -50.26535 33008 ft 507 kts 142°
2026-04-30 18:10 -21.41519 -50.06892 32967 ft 507 kts 142°
2026-04-30 18:11 -21.60242 -49.89557 32976 ft 508 kts 142°
2026-04-30 18:13 -21.73609 -49.77150 32979 ft 509 kts 142°
2026-04-30 18:14 -21.87006 -49.64684 32983 ft 509 kts 142°
2026-04-30 18:15 -21.94606 -49.56680 32988 ft 515 kts 126°
2026-04-30 18:15 -21.98576 -49.45933 32989 ft 521 kts 106°
2026-04-30 18:16 -22.02748 -49.30937 32992 ft 521 kts 110°
2026-04-30 18:17 -22.05083 -49.23587 32993 ft 521 kts 110°
2026-04-30 18:18 -22.08623 -49.12487 33009 ft 521 kts 110°
2026-04-30 18:18 -22.10969 -49.05075 33018 ft 521 kts 110°
2026-04-30 18:19 -22.13302 -48.97711 33020 ft 521 kts 110°
2026-04-30 18:19 -22.15653 -48.90295 33016 ft 522 kts 110°
2026-04-30 18:20 -22.17990 -48.82920 32883 ft 510 kts 110°
2026-04-30 18:20 -22.19117 -48.79353 32550 ft 496 kts 110°
2026-04-30 18:20 -22.20228 -48.75837 31993 ft 492 kts 110°
2026-04-30 18:20 -22.21317 -48.72392 31352 ft 490 kts 110°
2026-04-30 18:21 -22.22416 -48.68916 30715 ft 489 kts 110°
2026-04-30 18:21 -22.23515 -48.65436 30088 ft 490 kts 110°
2026-04-30 18:21 -22.24617 -48.61943 29390 ft 490 kts 110°
2026-04-30 18:21 -22.25713 -48.58453 28736 ft 491 kts 110°
2026-04-30 18:22 -22.26806 -48.54954 28053 ft 491 kts 109°
2026-04-30 18:22 -22.28988 -48.47952 26705 ft 493 kts 109°
2026-04-30 18:22 -22.30083 -48.44435 26038 ft 493 kts 109°
2026-04-30 18:23 -22.31181 -48.40911 25364 ft 494 kts 109°
2026-04-30 18:23 -22.32266 -48.37428 24691 ft 495 kts 109°
2026-04-30 18:23 -22.33363 -48.33902 24006 ft 496 kts 109°
2026-04-30 18:23 -22.34463 -48.30367 23274 ft 496 kts 109°
2026-04-30 18:24 -22.36284 -48.24502 22049 ft 491 kts 109°
2026-04-30 18:24 -22.37365 -48.21020 21359 ft 485 kts 109°
2026-04-30 18:24 -22.38774 -48.16477 20831 ft 479 kts 109°
2026-04-30 18:25 -22.39490 -48.14170 20717 ft 478 kts 109°
2026-04-30 18:25 -22.41589 -48.07419 20430 ft 474 kts 110°
2026-04-30 18:25 -22.42974 -48.04193 20429 ft 473 kts 123°
2026-04-30 18:26 -22.47340 -47.98936 20438 ft 469 kts 139°
2026-04-30 18:26 -22.49741 -47.96527 20436 ft 469 kts 137°
2026-04-30 18:26 -22.52047 -47.94038 20432 ft 468 kts 135°
2026-04-30 18:27 -22.56349 -47.88809 20433 ft 467 kts 131°
2026-04-30 18:27 -22.58423 -47.86102 20434 ft 466 kts 130°
2026-04-30 18:28 -22.62508 -47.80655 20435 ft 465 kts 130°
2026-04-30 18:28 -22.64546 -47.77928 20433 ft 464 kts 130°
2026-04-30 18:28 -22.68576 -47.72551 19256 ft 456 kts 130°
2026-04-30 18:29 -22.70567 -47.69898 18602 ft 450 kts 130°
2026-04-30 18:29 -22.76375 -47.62164 16631 ft 430 kts 130°
2026-04-30 18:30 -22.80096 -47.57206 15421 ft 417 kts 130°
2026-04-30 18:30 -22.83699 -47.52399 14242 ft 403 kts 130°
2026-04-30 18:31 -22.85454 -47.50057 13653 ft 397 kts 130°
2026-04-30 18:31 -22.88866 -47.45496 12477 ft 387 kts 130°
2026-04-30 18:32 -22.92222 -47.41008 11442 ft 378 kts 130°
2026-04-30 18:32 -22.93864 -47.38805 11140 ft 374 kts 130°
2026-04-30 18:32 -22.97003 -47.34580 10891 ft 343 kts 130°
2026-04-30 18:33 -22.98472 -47.32605 10788 ft 328 kts 130°
2026-04-30 18:33 -23.01209 -47.28929 10483 ft 299 kts 130°
2026-04-30 18:33 -23.02509 -47.27186 10131 ft 295 kts 130°
2026-04-30 18:34 -23.03803 -47.25452 9588 ft 295 kts 130°
2026-04-30 18:34 -23.06418 -47.21947 8533 ft 302 kts 130°
2026-04-30 18:34 -23.07726 -47.20190 7993 ft 293 kts 130°
2026-04-30 18:35 -23.08966 -47.18523 7605 ft 282 kts 130°
2026-04-30 18:35 -23.10206 -47.16856 7256 ft 284 kts 130°
2026-04-30 18:35 -23.11448 -47.15186 6905 ft 283 kts 130°
2026-04-30 18:36 -23.13879 -47.11915 6518 ft 275 kts 130°
2026-04-30 18:36 -23.14998 -47.10276 6500 ft 264 kts 121°
2026-04-30 18:36 -23.15417 -47.06323 5605 ft 275 kts 66°
2026-04-30 18:37 -23.14329 -47.04690 5283 ft 265 kts 43°
2026-04-30 18:37 -23.12908 -47.03488 4931 ft 249 kts 28°
2026-04-30 18:37 -23.11339 -47.02935 4553 ft 229 kts
2026-04-30 18:37 -23.09851 -47.03191 4377 ft 211 kts 334°
2026-04-30 18:38 -23.08677 -47.04083 4420 ft 203 kts 315°
2026-04-30 18:38 -23.07737 -47.05129 4383 ft 185 kts 311°
2026-04-30 18:38 -23.06887 -47.06137 4092 ft 178 kts 310°
2026-04-30 18:38 -23.06040 -47.07105 3915 ft 184 kts 313°
2026-04-30 18:39 -23.05062 -47.08104 3713 ft 191 kts 318°
2026-04-30 18:39 -23.04082 -47.09014 3312 ft 177 kts 317°
2026-04-30 18:39 -23.03262 -47.09911 2780 ft 164 kts 304°
2026-04-30 18:39 -23.02573 -47.10916 2504 ft 168 kts 307°
2026-04-30 18:40 -23.01842 -47.11910 2273 ft 167 kts 305°
2026-04-30 18:40 -23.01198 -47.12817 2159 ft 129 kts 307°
2026-04-30 18:40 -23.00739 -47.13454 2155 ft 87 kts 308°
2026-04-30 18:40 -23.00426 -47.13891 2157 ft 64 kts 308°
2026-04-30 18:41 -23.00177 -47.14239 2155 ft 54 kts 308°
2026-04-30 18:41 -23.00001 -47.14484 2158 ft 21 kts 308°
2026-04-30 18:41 -22.99972 -47.14596 2160 ft 12 kts 260°
2026-04-30 18:41 -23.00008 -47.14671 2158 ft 11 kts 226°
2026-04-30 18:42 -23.00081 -47.14725 2157 ft 13 kts 207°
2026-04-30 18:42 -23.00215 -47.14658 2160 ft 13 kts 128°
2026-04-30 18:42 -23.00266 -47.14587 2160 ft 11 kts 128°
2026-04-30 18:45 -23.00425 -47.14541 2158 ft 0 kts 217°